Retour au catalogue

STARLINK-33642

ActifCommunicationsVLEO
NORAD 63978·PAYLOAD·🇺🇸 United States

Lancé May 13, 2025 depuis Cape Canaveral Space Force Station

Loading…

Prochains Passages (prochaines 24 heures)

TLE

FraisSource: CelesTrak SupGP

Époque: Sep 14, 2026, 21:39 UTC

1 63978C 25099AC  26257.90256944 -.00012315  00000+0 -44599-3 0  2573
2 63978  42.9997 184.1092 0001149 264.2832 132.1479 15.27588125    14

Suivez STARLINK-33642 en temps réel avec AllMySat

Download on the App Store